| time (UTC) | temp C | wind direction | speed KPH | gust KPH | rain 1hr cm | rain 24hr cm | rain mn cm | humidity % | barometer mb |
| 20260506165253 | 11 | 8 | 1.6 | 6.4 | 0.00 | 0.00 | 0.00 | 96 | 1037.7 |
| 20260506164750 | 11 | 355 | 3.2 | 11.3 | 0.00 | 0.00 | 0.00 | 95 | 1037.6 |
| 20260506164247 | 11 | 31 | 0.0 | 0.0 | 0.00 | 0.00 | 0.00 | 95 | 1037.7 |
| 20260506163744 | 11 | 4 | 3.2 | 3.2 | 0.00 | 0.00 | 0.00 | 96 | 1037.8 |
| 20260506163238 | 11 | 7 | 1.6 | 6.4 | 0.00 | 0.00 | 0.00 | 96 | 1037.7 |
| 20260506162735 | 11 | 349 | 0.0 | 6.4 | 0.00 | 0.00 | 0.00 | 96 | 1037.7 |
| 20260506162233 | 11 | 346 | 6.4 | 11.3 | 0.00 | 0.00 | 0.00 | 96 | 1037.6 |
| 20260506161730 | 11 | 3 | 4.8 | 9.7 | 0.00 | 0.00 | 0.00 | 96 | 1037.7 |
| 20260506161226 | 11 | 15 | 3.2 | 12.9 | 0.00 | 0.00 | 0.00 | 96 | 1037.8 |
| 20260506160724 | 11 | 8 | 4.8 | 6.4 | 0.00 | 0.00 | 0.00 | 95 | 1038.1 |
| 20260506160220 | 11 | 7 | 4.8 | 9.7 | 0.00 | 0.00 | 0.00 | 95 | 1037.8 |
| 20260506155719 | 11 | 341 | 1.6 | 4.8 | 0.00 | 0.00 | 0.00 | 95 | 1037.7 |
| 20260506155215 | 11 | 12 | 4.8 | 9.7 | 0.00 | 0.00 | 0.00 | 95 | 1037.5 |
| 20260506153317 | 11 | 358 | 0.0 | 0.0 | 0.00 | 0.00 | 0.00 | 95 | 1037.4 |
| 20260506152814 | 11 | 35 | 0.0 | 0.0 | 0.00 | 0.00 | 0.00 | 95 | 1037.2 |
| 20260506152311 | 11 | 16 | 0.0 | 0.0 | 0.00 | 0.00 | 0.00 | 95 | 1037.0 |
| 20260506151810 | 11 | 16 | 0.0 | 0.0 | 0.00 | 0.00 | 0.00 | 96 | 1037.0 |
| 20260506151306 | 11 | 15 | 0.0 | 0.0 | 0.00 | 0.00 | 0.00 | 96 | 1036.9 |
| 20260506150803 | 11 | 16 | 0.0 | 0.0 | 0.00 | 0.00 | 0.00 | 97 | 1036.8 |
| 20260506150304 | 11 | 16 | 0.0 | 0.0 | 0.00 | 0.00 | 0.00 | 97 | 1037.0 |
| 20260506145757 | 11 | 349 | 0.0 | 0.0 | 0.00 | 0.00 | 0.00 | 97 | 1037.0 |
| 20260506145253 | 10 | 349 | 0.0 | 0.0 | 0.00 | 0.00 | 0.00 | 97 | 1036.8 |
| 20260506144751 | 10 | 348 | 0.0 | 0.0 | 0.00 | 0.00 | 0.00 | 97 | 1036.6 |
| 20260506144248 | 10 | 346 | 0.0 | 0.0 | 0.00 | 0.00 | 0.00 | 98 | 1036.7 |
| 20260506143745 | 10 | 355 | 3.2 | 3.2 | 0.00 | 0.00 | 0.00 | 97 | 1037.0 |
| 20260506143243 | 10 | 0 | 1.6 | 3.2 | 0.00 | 0.00 | 0.00 | 97 | 1036.9 |
| 20260506142741 | 10 | 26 | 0.0 | 0.0 | 0.00 | 0.00 | 0.00 | 97 | 1036.9 |
| 20260506142239 | 10 | 26 | 0.0 | 0.0 | 0.00 | 0.00 | 0.00 | 98 | 1036.9 |
| 20260506141736 | 10 | 26 | 0.0 | 0.0 | 0.00 | 0.00 | 0.00 | 98 | 1036.6 |
| 20260506141235 | 10 | 16 | 0.0 | 0.0 | 0.00 | 0.00 | 0.00 | 97 | 1036.9 |
| 20260506140732 | 10 | 337 | 0.0 | 1.6 | 0.00 | 0.00 | 0.00 | 97 | 1036.9 |
| 20260506140229 | 10 | 336 | 1.6 | 4.8 | 0.00 | 0.00 | 0.00 | 96 | 1036.7 |
| 20260506135725 | 10 | 318 | 0.0 | 1.6 | 0.00 | 0.00 | 0.00 | 97 | 1036.6 |
| 20260506135222 | 10 | 198 | 3.2 | 6.4 | 0.00 | 0.00 | 0.00 | 97 | 1036.9 |
| 20260506134719 | 10 | 213 | 0.0 | 0.0 | 0.00 | 0.00 | 0.00 | 98 | 1036.4 |
| 20260506134215 | 10 | 209 | 6.4 | 6.4 | 0.00 | 0.00 | 0.00 | 99 | 1036.2 |
| 20260506133712 | 10 | 153 | 4.8 | 11.3 | 0.00 | 0.00 | 0.00 | 99 | 1036.3 |
| 20260506133209 | 10 | 136 | 3.2 | 9.7 | 0.00 | 0.00 | 0.00 | 99 | 1036.4 |
| 20260506132706 | 9 | 214 | 0.0 | 6.4 | 0.00 | 0.00 | 0.00 | 99 | 1036.0 |
| 20260506132203 | 9 | 146 | 0.0 | 1.6 | 0.00 | 0.00 | 0.00 | 99 | 1036.3 |
| 20260506131701 | 8 | 100 | 0.0 | 0.0 | 0.00 | 0.00 | 0.00 | 99 | 1036.4 |
| 20260506131156 | 8 | 158 | 0.0 | 0.0 | 0.00 | 0.00 | 0.00 | 99 | 1036.3 |
| 20260506130653 | 8 | 32 | 0.0 | 0.0 | 0.00 | 0.00 | 0.00 | 99 | 1036.5 |
| 20260506130151 | 8 | 92 | 0.0 | 0.0 | 0.00 | 0.00 | 0.00 | 99 | 1036.5 |
| 20260506125649 | 8 | 92 | 0.0 | 0.0 | 0.00 | 0.00 | 0.00 | 99 | 1036.2 |
| 20260506125146 | 8 | 92 | 0.0 | 0.0 | 0.00 | 0.00 | 0.00 | 99 | 1036.3 |
| 20260506124644 | 8 | 30 | 0.0 | 0.0 | 0.00 | 0.00 | 0.00 | 99 | 1036.4 |
| 20260506124142 | 7 | 33 | 0.0 | 0.0 | 0.00 | 0.00 | 0.00 | 99 | 1036.6 |
| 20260506123640 | 7 | 32 | 0.0 | 0.0 | 0.00 | 0.00 | 0.00 | 99 | 1036.2 |
| 20260506123138 | 7 | 32 | 0.0 | 0.0 | 0.00 | 0.00 | 0.00 | 99 | 1036.4 |
| 20260506122634 | 8 | 32 | 0.0 | 0.0 | 0.00 | 0.00 | 0.00 | 99 | 1036.1 |
| 20260506122132 | 8 | 115 | 0.0 | 0.0 | 0.00 | 0.00 | 0.00 | 99 | 1036.3 |
| 20260506121629 | 8 | 187 | 0.0 | 0.0 | 0.00 | 0.00 | 0.00 | 99 | 1035.9 |
| 20260506121125 | 7 | 350 | 3.2 | 3.2 | 0.00 | 0.00 | 0.00 | 99 | 1036.1 |
| 20260506120624 | 7 | 5 | 0.0 | 0.0 | 0.00 | 0.00 | 0.00 | 99 | 1036.2 |
| 20260506120121 | 7 | 5 | 0.0 | 0.0 | 0.00 | 0.00 | 0.00 | 99 | 1036.0 |
| 20260506115619 | 8 | 5 | 0.0 | 0.0 | 0.00 | 0.00 | 0.00 | 99 | 1036.0 |
| 20260506115117 | 7 | 5 | 0.0 | 0.0 | 0.00 | 0.00 | 0.00 | 99 | 1036.0 |
| 20260506114614 | 7 | 5 | 0.0 | 0.0 | 0.00 | 0.00 | 0.00 | 99 | 1036.0 |
| 20260506114112 | 7 | 5 | 0.0 | 0.0 | 0.00 | 0.00 | 0.00 | 99 | 1036.0 |
| 20260506113610 | 7 | 5 | 0.0 | 0.0 | 0.00 | 0.00 | 0.00 | 99 | 1035.9 |
| 20260506113107 | 7 | 5 | 0.0 | 0.0 | 0.00 | 0.00 | 0.00 | 99 | 1036.0 |
| 20260506112603 | 7 | 5 | 0.0 | 0.0 | 0.00 | 0.00 | 0.00 | 99 | 1035.9 |
| 20260506112101 | 7 | 5 | 0.0 | 0.0 | 0.00 | 0.00 | 0.00 | 99 | 1036.0 |
| 20260506111558 | 7 | 5 | 0.0 | 0.0 | 0.00 | 0.00 | 0.00 | 99 | 1036.0 |
| 20260506111055 | 7 | 5 | 0.0 | 0.0 | 0.00 | 0.00 | 0.00 | 99 | 1036.0 |
| 20260506110553 | 7 | 5 | 0.0 | 0.0 | 0.00 | 0.00 | 0.00 | 99 | 1035.7 |
| 20260506110050 | 7 | 5 | 0.0 | 0.0 | 0.00 | 0.00 | 0.00 | 99 | 1035.6 |
| 20260506105546 | 7 | 5 | 0.0 | 0.0 | 0.00 | 0.00 | 0.00 | 99 | 1035.5 |
| 20260506105044 | 7 | 5 | 0.0 | 0.0 | 0.00 | 0.00 | 0.00 | 99 | 1035.3 |
| 20260506104542 | 7 | 5 | 0.0 | 0.0 | 0.00 | 0.00 | 0.00 | 99 | 1035.3 |
| 20260506104039 | 8 | 5 | 0.0 | 0.0 | 0.00 | 0.00 | 0.00 | 99 | 1035.5 |
| 20260506103536 | 8 | 5 | 0.0 | 0.0 | 0.00 | 0.00 | 0.00 | 99 | 1035.3 |
| 20260506103033 | 8 | 5 | 0.0 | 0.0 | 0.00 | 0.00 | 0.00 | 99 | 1035.0 |
| 20260506102531 | 8 | 11 | 0.0 | 0.0 | 0.00 | 0.00 | 0.00 | 99 | 1035.1 |
| 20260506102028 | 8 | 116 | 0.0 | 0.0 | 0.00 | 0.00 | 0.00 | 99 | 1034.9 |
| 20260506101525 | 8 | 32 | 0.0 | 0.0 | 0.00 | 0.00 | 0.00 | 99 | 1034.9 |
| 20260506101022 | 8 | 47 | 0.0 | 0.0 | 0.00 | 0.00 | 0.00 | 99 | 1034.9 |
| 20260506100520 | 8 | 47 | 0.0 | 0.0 | 0.00 | 0.00 | 0.00 | 99 | 1035.2 |
| 20260506100018 | 8 | 47 | 0.0 | 0.0 | 0.00 | 0.00 | 0.00 | 99 | 1035.1 |
| 20260506095517 | 8 | 47 | 0.0 | 0.0 | 0.00 | 0.00 | 0.00 | 99 | 1035.0 |
| 20260506095012 | 8 | 47 | 0.0 | 0.0 | 0.00 | 0.00 | 0.00 | 99 | 1035.0 |
| 20260506094511 | 8 | 47 | 0.0 | 0.0 | 0.00 | 0.00 | 0.00 | 99 | 1034.9 |
| 20260506094008 | 8 | 47 | 0.0 | 0.0 | 0.00 | 0.00 | 0.00 | 99 | 1034.9 |
| 20260506093506 | 8 | 47 | 0.0 | 0.0 | 0.00 | 0.00 | 0.00 | 99 | 1034.9 |
| 20260506093004 | 8 | 47 | 0.0 | 0.0 | 0.00 | 0.00 | 0.00 | 99 | 1034.9 |
| 20260506092501 | 8 | 47 | 0.0 | 0.0 | 0.00 | 0.00 | 0.00 | 99 | 1034.7 |
| 20260506091957 | 8 | 48 | 0.0 | 0.0 | 0.00 | 0.00 | 0.00 | 98 | 1034.8 |
| 20260506091456 | 8 | 49 | 0.0 | 0.0 | 0.00 | 0.00 | 0.00 | 98 | 1034.9 |
| 20260506090953 | 8 | 49 | 0.0 | 0.0 | 0.00 | 0.00 | 0.00 | 98 | 1034.7 |
| 20260506090451 | 8 | 66 | 0.0 | 0.0 | 0.00 | 0.00 | 0.00 | 98 | 1034.9 |
| 20260506085946 | 9 | 65 | 0.0 | 0.0 | 0.00 | 0.00 | 0.00 | 98 | 1034.8 |
| 20260506085444 | 9 | 86 | 0.0 | 0.0 | 0.00 | 0.00 | 0.00 | 98 | 1034.9 |
| 20260506084940 | 10 | 86 | 0.0 | 0.0 | 0.00 | 0.00 | 0.00 | 98 | 1034.6 |
| 20260506084437 | 10 | 16 | 0.0 | 0.0 | 0.00 | 0.00 | 0.00 | 98 | 1034.7 |
| 20260506083933 | 10 | 37 | 0.0 | 0.0 | 0.00 | 0.00 | 0.00 | 98 | 1034.7 |
| 20260506083430 | 10 | 0 | 0.0 | 1.6 | 0.00 | 0.00 | 0.00 | 98 | 1034.5 |
| 20260506082928 | 10 | 13 | 0.0 | 0.0 | 0.00 | 0.00 | 0.00 | 97 | 1034.5 |
| 20260506082425 | 10 | 13 | 0.0 | 1.6 | 0.00 | 0.00 | 0.00 | 97 | 1034.5 |
| 20260506081920 | 10 | 25 | 0.0 | 0.0 | 0.00 | 0.00 | 0.00 | 97 | 1034.6 |
| 20260506081419 | 10 | 26 | 0.0 | 0.0 | 0.00 | 0.00 | 0.00 | 97 | 1034.5 |
| 20260506080916 | 10 | 25 | 0.0 | 0.0 | 0.00 | 0.00 | 0.00 | 96 | 1034.5 |
| 20260506080412 | 10 | 30 | 0.0 | 0.0 | 0.00 | 0.00 | 0.00 | 96 | 1034.6 |
| 20260506073356 | 11 | 357 | 0.0 | 3.2 | 0.00 | 0.00 | 0.00 | 93 | 1034.2 |
| 20260506072853 | 12 | 337 | 1.6 | 4.8 | 0.00 | 0.00 | 0.00 | 92 | 1034.0 |
| 20260506072351 | 12 | 323 | 1.6 | 3.2 | 0.00 | 0.00 | 0.00 | 91 | 1034.0 |
| 20260506071848 | 13 | 285 | 1.6 | 6.4 | 0.00 | 0.00 | 0.00 | 88 | 1034.0 |
| 20260506071347 | 14 | 119 | 4.8 | 11.3 | 0.00 | 0.00 | 0.00 | 85 | 1034.1 |
| 20260506070843 | 13 | 190 | 6.4 | 11.3 | 0.00 | 0.00 | 0.00 | 86 | 1034.0 |
| 20260506070340 | 13 | 159 | 0.0 | 3.2 | 0.00 | 0.00 | 0.00 | 87 | 1033.8 |
| 20260506062317 | 14 | 147 | 12.9 | 14.5 | 0.00 | 0.00 | 0.00 | 85 | 1033.7 |
| 20260506061813 | 14 | 206 | 6.4 | 16.1 | 0.00 | 0.00 | 0.00 | 85 | 1033.5 |
| 20260506061310 | 14 | 174 | 3.2 | 20.9 | 0.00 | 0.00 | 0.00 | 86 | 1033.5 |
| 20260506060808 | 14 | 209 | 12.9 | 16.1 | 0.00 | 0.00 | 0.00 | 87 | 1033.4 |
| 20260506060306 | 12 | 109 | 9.7 | 12.9 | 0.00 | 0.00 | 0.00 | 90 | 1033.7 |
| 20260506051237 | 11 | 30 | 0.0 | 1.6 | 0.00 | 0.00 | 0.00 | 94 | 1033.4 |
| 20260506050735 | 12 | 30 | 0.0 | 0.0 | 0.00 | 0.00 | 0.00 | 94 | 1033.4 |
| 20260506050232 | 12 | 30 | 0.0 | 0.0 | 0.00 | 0.00 | 0.00 | 93 | 1033.3 |
| 20260506044723 | 12 | 30 | 0.0 | 0.0 | 0.00 | 0.00 | 0.00 | 92 | 1033.2 |
| 20260506044221 | 12 | 30 | 0.0 | 0.0 | 0.00 | 0.00 | 0.00 | 92 | 1033.3 |
| 20260506043718 | 13 | 30 | 0.0 | 0.0 | 0.00 | 0.00 | 0.00 | 91 | 1033.1 |
| 20260506043216 | 13 | 30 | 0.0 | 0.0 | 0.00 | 0.00 | 0.00 | 91 | 1033.0 |
| 20260506042714 | 13 | 31 | 0.0 | 0.0 | 0.00 | 0.00 | 0.00 | 90 | 1033.1 |
| 20260506042212 | 13 | 31 | 1.6 | 1.6 | 0.00 | 0.00 | 0.00 | 89 | 1032.9 |
| 20260506041710 | 13 | 35 | 1.6 | 3.2 | 0.00 | 0.00 | 0.00 | 89 | 1033.0 |
| 20260506041207 | 13 | 33 | 1.6 | 3.2 | 0.00 | 0.00 | 0.00 | 87 | 1032.8 |
| 20260506040704 | 13 | 34 | 0.0 | 0.0 | 0.00 | 0.00 | 0.00 | 87 | 1032.8 |
| 20260506040201 | 14 | 34 | 0.0 | 0.0 | 0.00 | 0.00 | 0.00 | 87 | 1032.9 |
| 20260506035658 | 14 | 34 | 0.0 | 0.0 | 0.00 | 0.00 | 0.00 | 86 | 1032.6 |
| 20260506035155 | 15 | 51 | 1.6 | 3.2 | 0.00 | 0.00 | 0.00 | 85 | 1032.5 |
| 20260506034651 | 15 | 84 | 0.0 | 3.2 | 0.00 | 0.00 | 0.00 | 86 | 1032.6 |
| 20260506034149 | 15 | 20 | 0.0 | 1.6 | 0.00 | 0.00 | 0.00 | 85 | 1032.4 |
| 20260506033646 | 15 | 14 | 0.0 | 3.2 | 0.00 | 0.00 | 0.00 | 83 | 1032.4 |
| 20260506033143 | 15 | 89 | 1.6 | 3.2 | 0.00 | 0.00 | 0.00 | 83 | 1032.5 |
| 20260506032640 | 15 | 341 | 0.0 | 3.2 | 0.00 | 0.00 | 0.00 | 83 | 1032.3 |
| 20260506032137 | 15 | 21 | 1.6 | 3.2 | 0.00 | 0.00 | 0.00 | 83 | 1032.2 |
| 20260506031634 | 15 | 24 | 0.0 | 0.0 | 0.00 | 0.00 | 0.00 | 82 | 1032.2 |
| 20260506031131 | 16 | 24 | 0.0 | 1.6 | 0.00 | 0.00 | 0.00 | 81 | 1032.3 |
| 20260506030630 | 16 | 50 | 3.2 | 4.8 | 0.00 | 0.00 | 0.00 | 81 | 1032.1 |
| 20260506030126 | 16 | 358 | 4.8 | 4.8 | 0.00 | 0.00 | 0.00 | 81 | 1032.3 |
| 20260506025623 | 16 | 9 | 1.6 | 4.8 | 0.00 | 0.00 | 0.00 | 81 | 1032.0 |
| 20260506025119 | 16 | 13 | 3.2 | 6.4 | 0.00 | 0.00 | 0.00 | 80 | 1032.1 |
| 20260506024617 | 16 | 357 | 3.2 | 4.8 | 0.00 | 0.00 | 0.00 | 80 | 1032.2 |
| 20260506024112 | 16 | 28 | 3.2 | 4.8 | 0.00 | 0.00 | 0.00 | 80 | 1032.0 |
| 20260506023609 | 17 | 16 | 3.2 | 4.8 | 0.00 | 0.00 | 0.00 | 79 | 1032.0 |
| 20260506023106 | 17 | 25 | 3.2 | 4.8 | 0.00 | 0.00 | 0.00 | 79 | 1032.0 |
| 20260506022604 | 17 | 5 | 4.8 | 6.4 | 0.00 | 0.00 | 0.00 | 79 | 1032.0 |
| 20260506022101 | 17 | 6 | 4.8 | 9.7 | 0.00 | 0.00 | 0.00 | 78 | 1032.1 |
| 20260506021559 | 17 | 15 | 3.2 | 6.4 | 0.00 | 0.00 | 0.00 | 78 | 1032.0 |
| 20260506021055 | 17 | 2 | 8.0 | 11.3 | 0.00 | 0.00 | 0.00 | 77 | 1032.0 |
| 20260506020553 | 17 | 51 | 6.4 | 9.7 | 0.00 | 0.00 | 0.00 | 76 | 1032.0 |
| 20260506020050 | 17 | 342 | 4.8 | 12.9 | 0.00 | 0.00 | 0.00 | 76 | 1031.9 |
| 20260506015548 | 18 | 7 | 8.0 | 16.1 | 0.00 | 0.00 | 0.00 | 76 | 1032.0 |
| 20260506015044 | 18 | 354 | 8.0 | 11.3 | 0.00 | 0.00 | 0.00 | 75 | 1032.1 |
| 20260506014542 | 18 | 349 | 4.8 | 9.7 | 0.00 | 0.00 | 0.00 | 74 | 1031.9 |
| 20260506014037 | 18 | 15 | 6.4 | 14.5 | 0.00 | 0.00 | 0.00 | 74 | 1031.9 |
| 20260506013536 | 18 | 11 | 4.8 | 9.7 | 0.00 | 0.00 | 0.00 | 74 | 1032.0 |
| 20260506013032 | 18 | 6 | 9.7 | 12.9 | 0.00 | 0.00 | 0.00 | 74 | 1031.7 |
| 20260506012528 | 18 | 7 | 6.4 | 9.7 | 0.00 | 0.00 | 0.00 | 73 | 1031.9 |
| 20260506012025 | 19 | 2 | 6.4 | 6.4 | 0.00 | 0.00 | 0.00 | 73 | 1031.8 |
| 20260506011523 | 18 | 3 | 3.2 | 4.8 | 0.00 | 0.00 | 0.00 | 73 | 1031.7 |
| 20260506011019 | 18 | 25 | 4.8 | 6.4 | 0.00 | 0.00 | 0.00 | 73 | 1031.8 |
| 20260506010514 | 18 | 353 | 6.4 | 9.7 | 0.00 | 0.00 | 0.00 | 73 | 1031.8 |
| 20260506010010 | 19 | 359 | 6.4 | 6.4 | 0.00 | 0.00 | 0.00 | 73 | 1031.9 |
| 20260506005507 | 18 | 355 | 4.8 | 11.3 | 0.00 | 0.00 | 0.00 | 73 | 1031.8 |
| 20260506005002 | 19 | 13 | 9.7 | 11.3 | 0.00 | 0.00 | 0.00 | 73 | 1031.9 |
| 20260506004500 | 19 | 15 | 6.4 | 9.7 | 0.00 | 0.00 | 0.00 | 72 | 1031.8 |
| 20260506003956 | 19 | 17 | 4.8 | 12.9 | 0.00 | 0.00 | 0.00 | 72 | 1031.8 |
| 20260506003453 | 19 | 20 | 6.4 | 16.1 | 0.00 | 0.00 | 0.00 | 72 | 1031.9 |
| 20260506002949 | 20 | 348 | 8.0 | 12.9 | 0.00 | 0.00 | 0.00 | 71 | 1031.9 |
| 20260506002445 | 20 | 42 | 3.2 | 12.9 | 0.00 | 0.00 | 0.00 | 71 | 1031.9 |
| 20260506001941 | 20 | 348 | 8.0 | 14.5 | 0.00 | 0.00 | 0.00 | 71 | 1032.1 |
| 20260506001438 | 20 | 347 | 4.8 | 12.9 | 0.00 | 0.00 | 0.00 | 71 | 1032.1 |
| 20260506000935 | 20 | 350 | 3.2 | 6.4 | 0.00 | 0.00 | 0.00 | 70 | 1032.1 |
| 20260506000433 | 20 | 354 | 9.7 | 14.5 | 0.00 | 0.00 | 0.00 | 69 | 1032.0 |
| 20260505235929 | 20 | 16 | 8.0 | 12.9 | 0.00 | 0.00 | 0.00 | 70 | 1032.0 |
| 20260505235428 | 21 | 0 | 11.3 | 12.9 | 0.00 | 0.00 | 0.00 | 68 | 1032.0 |
| 20260505234924 | 20 | 29 | 3.2 | 9.7 | 0.00 | 0.00 | 0.00 | 68 | 1032.1 |
| 20260505234422 | 20 | 10 | 4.8 | 11.3 | 0.00 | 0.00 | 0.00 | 69 | 1032.1 |
| 20260505233918 | 21 | 9 | 6.4 | 12.9 | 0.00 | 0.00 | 0.00 | 68 | 1032.2 |
| 20260505233416 | 21 | 350 | 8.0 | 11.3 | 0.00 | 0.00 | 0.00 | 67 | 1032.0 |
| 20260505232913 | 21 | 0 | 4.8 | 14.5 | 0.00 | 0.00 | 0.00 | 68 | 1032.2 |
| 20260505232411 | 21 | 68 | 4.8 | 14.5 | 0.00 | 0.00 | 0.00 | 68 | 1032.3 |
| 20260505231907 | 21 | 0 | 6.4 | 11.3 | 0.00 | 0.00 | 0.00 | 67 | 1032.4 |
| 20260505231405 | 21 | 355 | 8.0 | 11.3 | 0.00 | 0.00 | 0.00 | 66 | 1032.4 |
| 20260505230903 | 21 | 358 | 9.7 | 20.9 | 0.00 | 0.00 | 0.00 | 68 | 1032.4 |
| 20260505230401 | 20 | 356 | 4.8 | 11.3 | 0.00 | 0.00 | 0.00 | 67 | 1032.4 |
| 20260505225857 | 21 | 354 | 11.3 | 12.9 | 0.00 | 0.00 | 0.00 | 67 | 1032.5 |
| 20260505225354 | 21 | 27 | 9.7 | 16.1 | 0.00 | 0.00 | 0.00 | 66 | 1032.4 |
| 20260505224849 | 21 | 20 | 4.8 | 16.1 | 0.00 | 0.00 | 0.00 | 65 | 1032.5 |
| 20260505224347 | 21 | 4 | 3.2 | 12.9 | 0.00 | 0.00 | 0.00 | 64 | 1032.5 |
| 20260505223844 | 21 | 356 | 6.4 | 12.9 | 0.00 | 0.00 | 0.00 | 66 | 1032.4 |
| 20260505223341 | 21 | 54 | 3.2 | 6.4 | 0.00 | 0.00 | 0.00 | 64 | 1032.6 |
| 20260505222836 | 21 | 29 | 9.7 | 12.9 | 0.00 | 0.00 | 0.00 | 65 | 1032.6 |
| 20260505222333 | 21 | 18 | 4.8 | 14.5 | 0.00 | 0.00 | 0.00 | 66 | 1032.7 |
| 20260505221830 | 21 | 10 | 3.2 | 16.1 | 0.00 | 0.00 | 0.00 | 68 | 1032.6 |
| 20260505221327 | 21 | 354 | 14.5 | 20.9 | 0.00 | 0.00 | 0.00 | 66 | 1032.7 |
| 20260505220824 | 20 | 359 | 11.3 | 20.9 | 0.00 | 0.00 | 0.00 | 67 | 1032.9 |
| 20260505220321 | 21 | 356 | 14.5 | 22.5 | 0.00 | 0.00 | 0.00 | 66 | 1032.8 |
| 20260505215819 | 21 | 350 | 12.9 | 20.9 | 0.00 | 0.00 | 0.00 | 66 | 1032.9 |
| 20260505215317 | 21 | 9 | 9.7 | 12.9 | 0.00 | 0.00 | 0.00 | 67 | 1032.6 |
| 20260505214814 | 20 | 16 | 9.7 | 16.1 | 0.00 | 0.00 | 0.00 | 67 | 1033.0 |
| 20260505214312 | 20 | 25 | 14.5 | 16.1 | 0.00 | 0.00 | 0.00 | 68 | 1033.0 |
| 20260505213808 | 21 | 359 | 9.7 | 17.7 | 0.00 | 0.00 | 0.00 | 68 | 1032.9 |
| 20260505213307 | 21 | 28 | 8.0 | 16.1 | 0.00 | 0.00 | 0.00 | 68 | 1032.8 |
| 20260505212802 | 21 | 65 | 9.7 | 12.9 | 0.00 | 0.00 | 0.00 | 67 | 1032.8 |
| 20260505212259 | 20 | 8 | 8.0 | 14.5 | 0.00 | 0.00 | 0.00 | 68 | 1032.7 |
| 20260505211755 | 21 | 344 | 4.8 | 6.4 | 0.00 | 0.00 | 0.00 | 66 | 1032.7 |
| 20260505211254 | 20 | 349 | 8.0 | 14.5 | 0.00 | 0.00 | 0.00 | 67 | 1033.0 |
| 20260505210749 | 21 | 9 | 12.9 | 16.1 | 0.00 | 0.00 | 0.00 | 68 | 1032.8 |
| 20260505210247 | 20 | 4 | 9.7 | 12.9 | 0.00 | 0.00 | 0.00 | 68 | 1032.9 |
| 20260505205744 | 20 | 358 | 8.0 | 11.3 | 0.00 | 0.00 | 0.00 | 68 | 1033.1 |
| 20260505205242 | 20 | 35 | 4.8 | 12.9 | 0.00 | 0.00 | 0.00 | 69 | 1032.9 |
| 20260505204738 | 21 | 333 | 9.7 | 11.3 | 0.00 | 0.00 | 0.00 | 68 | 1033.0 |
| 20260505204236 | 20 | 21 | 8.0 | 12.9 | 0.00 | 0.00 | 0.00 | 69 | 1032.9 |
| 20260505203733 | 20 | 17 | 0.0 | 6.4 | 0.00 | 0.00 | 0.00 | 72 | 1033.1 |
| 20260505203230 | 20 | 345 | 8.0 | 20.9 | 0.00 | 0.00 | 0.00 | 69 | 1033.1 |
| 20260505202726 | 19 | 27 | 6.4 | 11.3 | 0.00 | 0.00 | 0.00 | 73 | 1033.0 |
| 20260505202222 | 20 | 13 | 12.9 | 16.1 | 0.00 | 0.00 | 0.00 | 70 | 1033.2 |
| 20260505201718 | 20 | 11 | 4.8 | 22.5 | 0.00 | 0.00 | 0.00 | 71 | 1033.1 |
| 20260505201216 | 20 | 4 | 8.0 | 16.1 | 0.00 | 0.00 | 0.00 | 70 | 1033.2 |
| 20260505200714 | 20 | 3 | 11.3 | 12.9 | 0.00 | 0.00 | 0.00 | 71 | 1033.3 |
| 20260505200211 | 19 | 11 | 12.9 | 17.7 | 0.00 | 0.00 | 0.00 | 71 | 1033.2 |
| 20260505195707 | 20 | 49 | 4.8 | 14.5 | 0.00 | 0.00 | 0.00 | 71 | 1033.1 |
| 20260505195204 | 20 | 358 | 6.4 | 11.3 | 0.00 | 0.00 | 0.00 | 70 | 1033.2 |
| 20260505194702 | 19 | 15 | 6.4 | 11.3 | 0.00 | 0.00 | 0.00 | 71 | 1033.0 |
| 20260505194157 | 20 | 322 | 9.7 | 17.7 | 0.00 | 0.00 | 0.00 | 71 | 1033.4 |
| 20260505193654 | 19 | 352 | 9.7 | 20.9 | 0.00 | 0.00 | 0.00 | 71 | 1033.0 |
| 20260505193151 | 20 | 358 | 11.3 | 14.5 | 0.00 | 0.00 | 0.00 | 69 | 1033.2 |
| 20260505192650 | 20 | 24 | 8.0 | 12.9 | 0.00 | 0.00 | 0.00 | 69 | 1033.1 |
| 20260505192147 | 19 | 21 | 11.3 | 16.1 | 0.00 | 0.00 | 0.00 | 71 | 1033.2 |
| 20260505191645 | 18 | 0 | 8.0 | 17.7 | 0.00 | 0.00 | 0.00 | 73 | 1032.9 |
| 20260505191143 | 18 | 3 | 12.9 | 16.1 | 0.00 | 0.00 | 0.00 | 73 | 1033.0 |
| 20260505190639 | 18 | 8 | 3.2 | 16.1 | 0.00 | 0.00 | 0.00 | 73 | 1033.3 |
| 20260505190138 | 19 | 340 | 9.7 | 14.5 | 0.00 | 0.00 | 0.00 | 71 | 1033.2 |
| 20260505185635 | 19 | 5 | 11.3 | 20.9 | 0.00 | 0.00 | 0.00 | 71 | 1033.1 |
| 20260505185132 | 19 | 26 | 11.3 | 16.1 | 0.00 | 0.00 | 0.00 | 71 | 1033.1 |
| 20260505184628 | 18 | 359 | 6.4 | 14.5 | 0.00 | 0.00 | 0.00 | 73 | 1033.1 |
| 20260505184125 | 19 | 343 | 11.3 | 16.1 | 0.00 | 0.00 | 0.00 | 71 | 1033.3 |
| 20260505183622 | 19 | 337 | 8.0 | 16.1 | 0.00 | 0.00 | 0.00 | 74 | 1033.2 |
| 20260505183120 | 19 | 316 | 9.7 | 16.1 | 0.00 | 0.00 | 0.00 | 71 | 1033.2 |
| 20260505182616 | 18 | 338 | 6.4 | 12.9 | 0.00 | 0.00 | 0.00 | 69 | 1033.2 |
| 20260505182113 | 18 | 28 | 3.2 | 16.1 | 0.00 | 0.00 | 0.00 | 71 | 1033.1 |
| 20260505181609 | 18 | 350 | 6.4 | 9.7 | 0.00 | 0.00 | 0.00 | 70 | 1033.1 |
| 20260505181107 | 18 | 9 | 11.3 | 12.9 | 0.00 | 0.00 | 0.00 | 68 | 1033.1 |
| 20260505180603 | 18 | 35 | 3.2 | 6.4 | 0.00 | 0.00 | 0.00 | 69 | 1033.2 |
| 20260505180101 | 18 | 348 | 8.0 | 14.5 | 0.00 | 0.00 | 0.00 | 69 | 1033.1 |
| 20260505175556 | 18 | 26 | 8.0 | 12.9 | 0.00 | 0.00 | 0.00 | 69 | 1033.0 |
| 20260505175053 | 18 | 47 | 3.2 | 9.7 | 0.00 | 0.00 | 0.00 | 68 | 1033.3 |
| 20260505174550 | 18 | 50 | 9.7 | 14.5 | 0.00 | 0.00 | 0.00 | 67 | 1033.0 |
| 20260505174045 | 18 | 340 | 3.2 | 6.4 | 0.00 | 0.00 | 0.00 | 69 | 1033.1 |
| 20260505173542 | 18 | 28 | 3.2 | 6.4 | 0.00 | 0.00 | 0.00 | 68 | 1033.3 |
| 20260505173039 | 18 | 344 | 11.3 | 12.9 | 0.00 | 0.00 | 0.00 | 68 | 1033.2 |
| 20260505172537 | 18 | 359 | 9.7 | 12.9 | 0.00 | 0.00 | 0.00 | 67 | 1033.1 |
| 20260505172033 | 17 | 1 | 4.8 | 9.7 | 0.00 | 0.00 | 0.00 | 66 | 1033.3 |
| 20260505171528 | 17 | 7 | 4.8 | 6.4 | 0.00 | 0.00 | 0.00 | 66 | 1033.0 |
| 20260505171025 | 18 | 349 | 6.4 | 11.3 | 0.00 | 0.00 | 0.00 | 65 | 1033.1 |
| 20260505170522 | 18 | 26 | 4.8 | 9.7 | 0.00 | 0.00 | 0.00 | 64 | 1033.1 |
| 20260505170018 | 18 | 77 | 0.0 | 4.8 | 0.00 | 0.00 | 0.00 | 66 | 1033.1 |